EW1940 Weather Reports


time (UTC)temp
C
wind
direction
speed
KPH
gust
KPH
rain 1hr
cm
rain 24hr
cm
rain mn
cm
humidity
%
barometer
mb
20260506051017 10 23 6.4 14.5 0.00 0.00 0.00 80 1012.1
20260506045016 10 45 3.2 11.3 0.00 0.00 0.00 79 1011.9
20260506044016 11 45 1.6 4.8 0.00 0.00 0.00 78 1011.9
20260506043017 11 23 1.6 9.7 0.00 0.00 0.00 77 1011.9
20260506042016 11 45 3.2 8.0 0.00 0.00 0.00 77 1012.0
20260506041016 11 45 4.8 12.9 0.00 0.00 0.00 76 1012.0
20260506040016 11 45 3.2 11.3 0.00 0.00 0.00 76 1012.0
20260506035017 11 68 3.2 6.4 0.00 0.00 0.00 75 1011.9
20260506034036 11 45 3.2 9.7 0.00 0.00 0.00 75 1012.0
20260506033017 11 45 3.2 6.4 0.00 0.00 0.00 75 1011.9
20260506032016 11 45 4.8 12.9 0.00 0.00 0.00 74 1011.9
20260506031016 11 45 6.4 17.7 0.00 0.00 0.00 73 1012.0
20260506030016 11 45 6.4 17.7 0.00 0.00 0.00 73 1011.9
20260506025017 11 45 3.2 8.0 0.00 0.00 0.00 73 1012.0
20260506024017 11 45 4.8 12.9 0.00 0.00 0.00 73 1011.9
20260506023037 11 45 6.4 20.9 0.00 0.00 0.00 73 1011.9
20260506022016 11 45 6.4 19.3 0.00 0.00 0.00 74 1011.9
20260506021016 11 45 8.0 19.3 0.00 0.00 0.00 75 1011.9
20260506020016 12 45 6.4 14.5 0.00 0.00 0.00 76 1012.0
20260506015016 12 45 4.8 16.1 0.00 0.00 0.00 76 1012.0
20260506014017 12 45 3.2 8.0 0.00 0.00 0.00 75 1012.0
20260506013015 12 45 4.8 11.3 0.00 0.00 0.00 75 1012.0
20260506012016 12 45 4.8 11.3 0.00 0.00 0.00 75 1012.1
20260506011015 12 45 4.8 12.9 0.00 0.00 0.00 74 1012.1
20260506010016 12 45 4.8 12.9 0.00 0.00 0.00 74 1012.1
20260506005016 12 90 3.2 8.0 0.00 0.00 0.00 73 1012.1
20260506004015 12 45 1.6 4.8 0.00 0.00 0.00 73 1012.2
20260506003015 12 90 3.2 12.9 0.00 0.00 0.00 72 1012.2
20260506002017 12 90 1.6 6.4 0.00 0.00 0.00 72 1012.3
20260506001037 12 90 3.2 8.0 0.00 0.00 0.00 71 1012.3
20260506000017 12 113 3.2 11.3 0.00 0.00 0.00 70 1012.3
20260505235015 12 45 4.8 16.1 0.00 0.00 0.00 69 1012.2
20260505234018 12 45 4.8 12.9 0.00 0.00 0.00 69 1012.2
20260505233017 12 45 4.8 8.0 0.00 0.00 0.00 69 1012.1
20260505232015 12 90 4.8 14.5 0.00 0.00 0.00 70 1012.1
20260505231036 12 68 3.2 8.0 0.00 0.00 0.00 71 1012.0
20260505230015 13 90 3.2 6.4 0.00 0.00 0.00 73 1012.0
20260505225016 13 90 1.6 6.4 0.00 0.00 0.00 74 1011.9
20260505224016 13 45 3.2 8.0 0.00 0.00 0.00 74 1011.8
20260505223015 13 45 4.8 12.9 0.00 0.00 0.00 74 1011.9
20260505222017 13 45 4.8 9.7 0.00 0.00 0.00 76 1011.8
20260505221017 13 45 3.2 6.4 0.00 0.00 0.00 77 1011.7
20260505220018 13 45 3.2 8.0 0.00 0.00 0.00 77 1011.6
20260505215018 13 23 1.6 4.8 0.00 0.00 0.00 77 1011.6
20260505214040 13 23 1.6 4.8 0.00 0.00 0.00 78 1011.6
20260505213039 13 0.0 0.0 0.00 0.00 0.00 78 1011.7
20260505212058 13 0.0 0.0 0.00 0.00 0.00 78 1011.6
20260505211017 13 0.0 0.0 0.00 0.00 0.00 78 1011.5
20260505210019 13 0.0 0.0 0.00 0.00 0.00 77 1011.6
20260505205101 14 0.0 0.0 0.00 0.00 0.00 77 1011.6
20260505204019 14 0.0 0.0 0.00 0.00 0.00 76 1011.5
20260505203015 14 0.0 0.0 0.00 0.00 0.00 76 1011.5
20260505202019 14 0.0 0.0 0.00 0.00 0.00 75 1011.5
20260505201017 14 0.0 0.0 0.00 0.00 0.00 74 1011.5
20260505200040 14 0.0 0.0 0.00 0.00 0.00 73 1011.5
20260505195017 14 0.0 0.0 0.00 0.00 0.00 73 1011.4
20260505194037 15 23 1.6 3.2 0.00 0.00 0.00 72 1011.3
20260505193017 15 0 1.6 4.8 0.00 0.00 0.00 72 1011.2
20260505192017 15 0.0 3.2 0.00 0.00 0.00 72 1011.2
20260505191017 15 23 1.6 4.8 0.00 0.00 0.00 71 1011.1
20260505190018 15 0 1.6 4.8 0.00 0.00 0.00 71 1011.1
20260505185037 15 0 1.6 3.2 0.00 0.00 0.00 70 1011.0
20260505184017 15 0 1.6 6.4 0.00 0.00 0.00 71 1011.0
20260505183017 15 23 1.6 3.2 0.00 0.00 0.00 70 1010.9
20260505182019 15 0 1.6 4.8 0.00 0.00 0.00 70 1010.9
20260505181040 15 338 1.6 4.8 0.00 0.00 0.00 69 1010.8
20260505180017 15 0 3.2 4.8 0.00 0.00 0.00 69 1010.9
20260505175018 15 338 1.6 4.8 0.00 0.00 0.00 69 1011.0
20260505174017 15 0 1.6 4.8 0.00 0.00 0.00 68 1011.0
20260505173017 15 338 3.2 4.8 0.00 0.00 0.00 68 1011.0
20260505172017 15 338 3.2 4.8 0.00 0.00 0.00 68 1011.0
20260505171018 16 338 3.2 9.7 0.00 0.00 0.00 67 1011.0
20260505170018 16 338 4.8 14.5 0.00 0.00 0.00 66 1011.0
20260505165018 16 338 3.2 11.3 0.00 0.00 0.00 66 1011.1
20260505164017 16 0 3.2 11.3 0.00 0.00 0.00 66 1011.1
20260505163017 16 23 4.8 14.5 0.00 0.00 0.00 65 1011.0
20260505162017 16 0 6.4 12.9 0.00 0.00 0.00 65 1011.1
20260505161017 16 338 3.2 11.3 0.00 0.00 0.00 65 1011.1
20260505153017 17 338 3.2 6.4 0.00 0.00 0.00 65 1011.2
20260505152016 17 23 6.4 16.1 0.00 0.00 0.00 66 1011.2
20260505151017 17 0 6.4 12.9 0.00 0.00 0.00 65 1011.2
20260505125018 16 23 4.8 12.9 0.00 0.00 0.00 64 1011.8
20260505124036 16 23 4.8 14.5 0.00 0.00 0.00 64 1011.9
20260505123018 16 23 8.0 16.1 0.00 0.00 0.00 64 1011.9
20260505122018 16 23 6.4 16.1 0.00 0.00 0.00 64 1011.9
20260505121018 16 0 4.8 12.9 0.00 0.00 0.00 65 1011.9
20260505120016 16 0 6.4 14.5 0.00 0.00 0.00 64 1011.9
20260505115038 16 23 8.0 14.5 0.00 0.00 0.00 64 1011.9
20260505114017 17 23 9.7 17.7 0.00 0.00 0.00 62 1012.0
20260505113017 17 23 11.3 19.3 0.00 0.00 0.00 63 1012.0
20260505112016 17 23 8.0 17.7 0.00 0.00 0.00 61 1012.0
20260505111016 17 45 9.7 19.3 0.00 0.00 0.00 62 1012.1
20260505102016 17 338 8.0 20.9 0.00 0.00 0.00 61 1012.2
20260505101016 17 45 12.9 24.1 0.00 0.00 0.00 61 1012.3
20260505100016 17 0 9.7 27.4 0.00 0.00 0.00 63 1012.2
20260505095016 16 23 9.7 22.5 0.00 0.00 0.00 68 1012.3
20260505094016 15 23 11.3 29.0 0.00 0.00 0.00 69 1012.3
20260505093016 15 23 9.7 17.7 0.00 0.00 0.00 70 1012.4
20260505092018 15 45 9.7 17.7 0.00 0.00 0.00 70 1012.4
20260505091016 15 23 9.7 19.3 0.00 0.00 0.00 70 1012.5
20260505090016 15 23 8.0 17.7 0.00 0.00 0.00 69 1012.5
20260505085037 15 23 9.7 22.5 0.00 0.00 0.00 71 1012.5
20260505084038 15 23 8.0 16.1 0.00 0.00 0.00 71 1012.6
20260505083016 15 45 9.7 19.3 0.00 0.00 0.00 70 1012.6
20260505082036 15 45 8.0 16.1 0.00 0.00 0.00 70 1012.6
20260505081016 15 23 8.0 16.1 0.00 0.00 0.00 72 1012.5
20260505080017 15 0 4.8 16.1 0.00 0.00 0.00 73 1012.5
20260505075016 15 45 8.0 16.1 0.00 0.00 0.00 74 1012.5
20260505074016 14 45 9.7 20.9 0.00 0.00 0.00 75 1012.5
20260505073017 14 45 8.0 19.3 0.00 0.00 0.00 80 1012.5
20260505072016 13 45 6.4 16.1 0.00 0.00 0.00 85 1012.6
20260505071036 13 45 6.4 12.9 0.00 0.00 0.00 86 1012.5
20260505070016 13 45 4.8 14.5 0.00 0.00 0.00 87 1012.6
20260505065017 13 0 4.8 12.9 0.00 0.00 0.00 87 1012.7
20260505064016 12 0 3.2 11.3 0.00 0.00 0.00 88 1012.8
20260505063016 12 23 4.8 12.9 0.00 0.00 0.00 88 1012.9
20260505062017 12 23 3.2 8.0 0.00 0.00 0.00 88 1012.8
20260505061019 12 45 4.8 8.0 0.00 0.00 0.00 89 1012.7
20260505060017 12 23 1.6 4.8 0.00 0.00 0.00 89 1012.8
20260505055017 12 45 1.6 6.4 0.00 0.00 0.00 89 1012.7
20260505054016 12 0.0 3.2 0.00 0.00 0.00 89 1012.7
20260505053057 12 23 1.6 6.4 0.00 0.00 0.00 89 1012.7
20260505052016 12 23 1.6 4.8 0.00 0.00 0.00 89 1012.6